When you browse on this site, cookies collect data to enhance your experience and personalize the content and advertising you see.
Visit our Privacy Policy to learn more. By continuing to use the site, you agree to this use of cookies and data.
EN

Hourly Weather Sborovskiy

Today, 9 August, Sunday

Time Temperature Precipitation Wind Pressure Humidity
00:00 +16°C° 0 mm 5 mps 740 mmHg 79%
01:00 +15°C° 0 mm 5 mps 740 mmHg 81%
02:00 +15°C° 0 mm 5 mps 740 mmHg 80%
03:00 +15°C° 0 mm 6 mps 739 mmHg 78%
04:00 +15°C° 0 mm 5 mps 739 mmHg 75%
05:00 +15°C° 0 mm 6 mps 739 mmHg 75%
06:00 +15°C° 0 mm 7 mps 739 mmHg 74%
07:00 +15°C° 0 mm 7 mps 739 mmHg 74%
08:00 +16°C° 0.1 mm 8 mps 739 mmHg 69%
09:00 +17°C° 0.1 mm 8 mps 739 mmHg 64%
10:00 +18°C° 0 mm 8 mps 738 mmHg 60%
11:00 +20°C° 0 mm 8 mps 738 mmHg 59%
12:00 +20°C° 0 mm 8 mps 738 mmHg 58%
13:00 +21°C° 0 mm 8 mps 738 mmHg 57%
14:00 +18°C° 1.1 mm 9 mps 738 mmHg 67%
15:00 +16°C° 1.1 mm 9 mps 738 mmHg 78%
16:00 +13°C° 0 mm 8 mps 738 mmHg 91%
17:00 +13°C° 0.6 mm 8 mps 738 mmHg 89%
18:00 +15°C° 0.6 mm 8 mps 738 mmHg 87%
19:00 +15°C° 0.6 mm 8 mps 738 mmHg 85%
20:00 +15°C° 0.4 mm 9 mps 738 mmHg 86%
21:00 +13°C° 0.4 mm 9 mps 738 mmHg 87%
22:00 +13°C° 0.4 mm 9 mps 738 mmHg 87%
23:00 +13°C° 0.3 mm 8 mps 738 mmHg 87%

Tomorrow, 10 August, Monday

Time Temperature Precipitation Wind Pressure Humidity
00:00 +13°C° 0.3 mm 8 mps 738 mmHg 87%
01:00 +14°C° 0.3 mm 7 mps 738 mmHg 87%
02:00 +13°C° 0.1 mm 8 mps 738 mmHg 85%
03:00 +13°C° 0.1 mm 8 mps 738 mmHg 84%
04:00 +12°C° 0.1 mm 8 mps 738 mmHg 82%
05:00 +12°C° 0 mm 8 mps 738 mmHg 81%
06:00 +12°C° 0 mm 8 mps 739 mmHg 80%
07:00 +12°C° 0 mm 9 mps 739 mmHg 79%
08:00 +15°C° 0 mm 9 mps 739 mmHg 73%
09:00 +16°C° 0 mm 9 mps 739 mmHg 67%
10:00 +17°C° 0 mm 10 mps 740 mmHg 61%
11:00 +18°C° 0 mm 9 mps 740 mmHg 58%
12:00 +19°C° 0 mm 9 mps 740 mmHg 55%
13:00 +21°C° 0 mm 9 mps 740 mmHg 52%
14:00 +21°C° 0 mm 9 mps 740 mmHg 52%
15:00 +21°C° 0 mm 9 mps 741 mmHg 52%
16:00 +22°C° 0 mm 9 mps 741 mmHg 52%
17:00 +21°C° 0 mm 8 mps 741 mmHg 56%
18:00 +18°C° 0 mm 7 mps 741 mmHg 61%
19:00 +17°C° 0 mm 6 mps 741 mmHg 65%
20:00 +16°C° 0 mm 5 mps 742 mmHg 68%
21:00 +15°C° 0 mm 5 mps 742 mmHg 71%
22:00 +14°C° 0 mm 4 mps 742 mmHg 74%
23:00 +14°C° 0 mm 5 mps 742 mmHg 75%

Day after tomorrow, 11 August, Tuesday

Time Temperature Precipitation Wind Pressure Humidity
00:00 +14°C° 0 mm 5 mps 742 mmHg 76%
01:00 +14°C° 0 mm 6 mps 742 mmHg 77%
02:00 +13°C° 0 mm 6 mps 742 mmHg 79%
03:00 +13°C° 0 mm 5 mps 743 mmHg 80%
04:00 +12°C° 0 mm 5 mps 743 mmHg 82%
05:00 +13°C° 0 mm 5 mps 743 mmHg 80%
06:00 +13°C° 0 mm 5 mps 743 mmHg 78%
07:00 +13°C° 0 mm 5 mps 743 mmHg 77%
08:00 +15°C° 0 mm 6 mps 743 mmHg 70%
09:00 +17°C° 0 mm 6 mps 743 mmHg 62%
10:00 +18°C° 0 mm 7 mps 743 mmHg 55%
11:00 +20°C° 0 mm 7 mps 743 mmHg 53%
12:00 +21°C° 0 mm 7 mps 743 mmHg 51%
13:00 +21°C° 0 mm 6 mps 744 mmHg 50%
14:00 +21°C° 0 mm 6 mps 744 mmHg 50%
15:00 +22°C° 0 mm 6 mps 744 mmHg 50%
16:00 +22°C° 0 mm 6 mps 744 mmHg 50%
17:00 +21°C° 0 mm 5 mps 744 mmHg 54%
18:00 +20°C° 0 mm 4 mps 744 mmHg 58%
19:00 +20°C° 0 mm 3 mps 745 mmHg 63%
20:00 +18°C° 0 mm 3 mps 745 mmHg 67%
21:00 +17°C° 0 mm 2 mps 745 mmHg 71%
22:00 +16°C° 0 mm 2 mps 745 mmHg 75%
23:00 +15°C° 0 mm 1 mps 745 mmHg 76%

12 August, Wednesday

Time Temperature Precipitation Wind Pressure Humidity
00:00 +15°C° 0 mm 1 mps 745 mmHg 78%
01:00 +14°C° 0 mm 1 mps 745 mmHg 79%
02:00 +14°C° 0 mm 1 mps 745 mmHg 80%
03:00 +14°C° 0 mm 1 mps 745 mmHg 82%
04:00 +13°C° 0 mm 1 mps 745 mmHg 83%
05:00 +14°C° 0 mm 1 mps 745 mmHg 80%
06:00 +15°C° 0 mm 1 mps 745 mmHg 78%
07:00 +15°C° 0 mm 0 mps 745 mmHg 75%
08:00 +18°C° 0 mm 1 mps 745 mmHg 69%
09:00 +20°C° 0 mm 1 mps 745 mmHg 63%
10:00 +21°C° 0 mm 1 mps 745 mmHg 57%
11:00 +22°C° 0 mm 1 mps 745 mmHg 53%
12:00 +23°C° 0 mm 1 mps 745 mmHg 49%
13:00 +23°C° 0 mm 2 mps 745 mmHg 46%
14:00 +24°C° 0 mm 2 mps 745 mmHg 45%
15:00 +24°C° 0 mm 2 mps 745 mmHg 44%
16:00 +24°C° 0 mm 2 mps 745 mmHg 44%
17:00 +23°C° 0 mm 1 mps 745 mmHg 48%
18:00 +23°C° 0 mm 1 mps 745 mmHg 52%
19:00 +22°C° 0 mm 1 mps 745 mmHg 56%
20:00 +21°C° 0 mm 1 mps 745 mmHg 59%
21:00 +19°C° 0 mm 2 mps 745 mmHg 62%
22:00 +17°C° 0 mm 2 mps 745 mmHg 65%
23:00 +17°C° 0 mm 2 mps 745 mmHg 66%

13 August, Thursday

Time Temperature Precipitation Wind Pressure Humidity
00:00 +17°C° 0 mm 2 mps 745 mmHg 68%
01:00 +16°C° 0 mm 2 mps 745 mmHg 70%
02:00 +16°C° 0 mm 3 mps 744 mmHg 72%
03:00 +14°C° 0 mm 3 mps 744 mmHg 73%
04:00 +14°C° 0 mm 3 mps 744 mmHg 75%
05:00 +16°C° 0 mm 3 mps 744 mmHg 73%
06:00 +15°C° 0 mm 4 mps 744 mmHg 70%
07:00 +17°C° 0 mm 4 mps 744 mmHg 68%
08:00 +19°C° 0 mm 5 mps 743 mmHg 62%
09:00 +21°C° 0 mm 5 mps 743 mmHg 56%
10:00 +22°C° 0 mm 6 mps 743 mmHg 50%
11:00 +22°C° 0 mm 6 mps 743 mmHg 51%
12:00 +22°C° 0 mm 6 mps 743 mmHg 52%
13:00 +22°C° 0 mm 5 mps 742 mmHg 53%
14:00 +21°C° 0.6 mm 5 mps 742 mmHg 61%
15:00 +20°C° 0.6 mm 4 mps 742 mmHg 68%
16:00 +19°C° 0.6 mm 4 mps 741 mmHg 76%
17:00 +19°C° 0.1 mm 3 mps 741 mmHg 75%
18:00 +19°C° 0.1 mm 3 mps 741 mmHg 74%
19:00 +19°C° 0.1 mm 2 mps 741 mmHg 73%
20:00 +18°C° 0.5 mm 2 mps 741 mmHg 76%
21:00 +17°C° 0.5 mm 2 mps 741 mmHg 80%
22:00 +16°C° 0.5 mm 2 mps 741 mmHg 84%
23:00 +16°C° 0 mm 2 mps 741 mmHg 85%

14 August, Friday

Time Temperature Precipitation Wind Pressure Humidity
00:00 +16°C° 0 mm 2 mps 740 mmHg 86%
01:00 +15°C° 0 mm 2 mps 740 mmHg 87%
02:00 +15°C° 0 mm 2 mps 740 mmHg 87%
03:00 +15°C° 0 mm 2 mps 740 mmHg 87%
04:00 +14°C° 0 mm 2 mps 740 mmHg 87%
05:00 +15°C° 0 mm 2 mps 740 mmHg 84%
06:00 +15°C° 0 mm 2 mps 740 mmHg 82%
07:00 +16°C° 0 mm 2 mps 740 mmHg 80%
08:00 +17°C° 0.1 mm 2 mps 740 mmHg 74%
09:00 +19°C° 0.1 mm 3 mps 740 mmHg 69%
10:00 +20°C° 0.1 mm 4 mps 740 mmHg 64%
11:00 +20°C° 0.1 mm 4 mps 740 mmHg 61%
12:00 +21°C° 0.1 mm 4 mps 740 mmHg 59%
13:00 +21°C° 0.1 mm 5 mps 740 mmHg 56%
14:00 +21°C° 1 mm 5 mps 740 mmHg 59%
15:00 +20°C° 1 mm 5 mps 740 mmHg 62%
16:00 +20°C° 1 mm 5 mps 740 mmHg 65%
17:00 +19°C° 0.3 mm 5 mps 740 mmHg 68%
18:00 +18°C° 0.3 mm 4 mps 740 mmHg 71%
19:00 +17°C° 0.3 mm 4 mps 740 mmHg 74%
20:00 +16°C° 0 mm 3 mps 740 mmHg 78%
21:00 +14°C° 0 mm 3 mps 741 mmHg 81%
22:00 +13°C° 0 mm 3 mps 741 mmHg 85%
23:00 +12°C° 0 mm 3 mps 741 mmHg 86%
Show more